Flag for Germany Weather past 2 weeks in Heilbronn, Baden-Württemberg, Germany

Now
57 °F

Light rain. Fog.


Feels Like: 57 °F
Forecast: 45 / 67 °F
Wind: 1 mph from South

Location: Oehringen

Current Time: Sep 3, 2015 at 7:43:05 AM

Latest Report: Sep 3, 2015 at 7:00 AM


Visibility: 2 mi

Pressure: 29.96 "Hg

Humidity: 96%

Dew point: 56 °F

Location of HeilbronnLocation

Historic Weather in Heilbronn — Graph

°F

Heilbronn temperature yesterday

Maximum temperature yesterday: 71 °F (at 4:00 PM)
Minimum temperature yesterday: 54 °F (at 7:00 AM)
Average temperature yesterday: 62 °F

Past Weeks' High & Low Weather Summary

 TemperatureHumidityPressure
High93 °F (Aug 31, 6:00 PM)99% (Aug 21, 8:00 AM)30.29 "Hg (Aug 21, 8:00 AM)
Low51 °F (Aug 26, 7:00 AM)27% (Aug 22, 2:00 PM)29.68 "Hg (Aug 24, 3:00 PM)
Average69 °F66%30.01 "Hg
* Reported Aug 19 5:00 AM — Sep 3 5:00 AM, Heilbronn, Weather by CustomWeather, © 2015

Note: Actual official high and low records may vary slightly from our data, if they occured in-between our weather recording intervals... More about our weather records

Advertising

Heilbronn weather history for previous 24 hours

 ConditionsComfort  
Time TempWeatherWind HumidityBarometerVisibility
5:00 AM
Thu, Sep 3
57 °FLight rain. Overcast.1 mph95%29.96 "Hg3 mi
4:00 AM57 °FOvercast.1 mph91%29.96 "Hg7 mi
3:00 AM58 °FOvercast.2 mph93%29.96 "Hg7 mi
2:00 AM59 °FLight rain. Overcast.2 mph90%29.96 "Hg6 mi
1:00 AM59 °FPassing clouds.1 mph84%29.97 "Hg16 mi
11:00 PM
Wed, Sep 2
62 °FOvercast.1 mph79%29.98 "Hg16 mi
10:00 PM63 °FOvercast.1 mph73%29.99 "Hg17 mi
9:00 PM65 °FOvercast.1 mph64%29.98 "Hg19 mi
8:00 PM67 °FOvercast.1 mph61%29.98 "Hg22 mi
7:00 PM68 °FOvercast.2 mph56%29.97 "Hg22 mi
6:00 PM69 °FOvercast.3 mph53%29.97 "Hg22 mi
5:00 PM69 °FOvercast.2 mph47%29.97 "Hg25 mi
4:00 PM71 °FOvercast.1 mph45%29.97 "Hg22 mi
3:00 PM71 °FPassing clouds.2 mph47%29.99 "Hg28 mi
2:00 PM68 °FOvercast.2 mph52%30.01 "Hg31 mi
1:00 PM66 °FPassing clouds.2 mph61%30.03 "Hg22 mi
12:00 PM63 °FPassing clouds.2 mph71%30.05 "Hg12 mi
11:00 AM61 °FScattered clouds.2 mph77%30.06 "Hg7 mi
10:00 AM59 °FFog.2 mph87%30.06 "Hg4 mi
9:00 AM57 °FFog.1 mph85%30.07 "Hg4 mi
8:00 AM55 °FFog.No wind90%30.07 "Hg4 mi
7:00 AM54 °FFog.No wind96%30.07 "Hg4 mi
Weather by CustomWeather, © 2015

See weather overviewHow to use our weather pages